Retour au catalogue

STARLINK-30248

ActifCommunicationsVLEO
NORAD 57610·PAYLOAD·🇺🇸 United States

Lancé Aug 11, 2023 depuis Cape Canaveral Space Force Station

Loading…

Prochains Passages (prochaines 24 heures)

TLE

FraisSource: CelesTrak SupGP

Époque: Sep 15, 2026, 01:42 UTC

1 57610C 23119J   26258.07131944  .00038721  00000+0  14022-2 0  2586
2 57610  43.0032  91.6768 0001590 273.2715 108.0662 15.27565581    11

Suivez STARLINK-30248 en temps réel avec AllMySat

Download on the App Store